Home > Weather > U.S.A. > Elizabeth > Past weeks

Flag for U.S.A. Weather past 2 weeks in Elizabeth, New Jersey, U.S.A.

51 °F

Light rain. Fog.

Feels Like: 47 °F
Forecast: 45 / 51 °F
Wind: 9 mph from East

Location: Newark International Airport

Current Time: Dec 1, 2015 at 3:34:36 PM

Latest Report: Dec 1, 2015 at 2:51 PM

Visibility: 3 mi

Pressure: 30.12 "Hg

Humidity: 87%

Dew point: 47 °F

Location of ElizabethLocation

Historic Weather in Elizabeth — Graph


Elizabeth temperature yesterday

Maximum temperature yesterday: 46 °F (at 12:51 PM)
Minimum temperature yesterday: 32 °F (at 5:51 AM)
Average temperature yesterday: 40 °F

Past Weeks' High & Low Weather Summary

High70 °F (Nov 16, 2:51 PM)100% (Nov 19, 9:51 PM)30.82 "Hg (Nov 19, 9:51 PM)
Low27 °F (Nov 24, 1:51 AM)20% (Nov 20, 2:51 PM)29.86 "Hg (Nov 22, 4:51 AM)
Average48 °F64%30.31 "Hg
* Reported Nov 16 1:51 PM — Dec 1 1:51 PM, Elizabeth, Weather by CustomWeather, © 2015

Note: Actual official high and low records may vary slightly from our data, if they occured in-between our weather recording intervals... More about our weather records


Elizabeth weather history for previous 24 hours

Time TempWeatherWind HumidityBarometerVisibility
1:51 PM
Tue, Dec 1
51 °FLight rain. Fog.7 mph88%30.14 "Hg2 mi
12:51 PM52 °FDrizzle. Overcast.13 mph85%30.15 "Hg7 mi
11:51 AM52 °FLight rain. Fog.10 mph90%30.18 "Hg3 mi
10:51 AM52 °FLight rain. Fog.8 mph90%30.21 "Hg6 mi
9:51 AM51 °FLight rain. Fog.7 mph91%30.21 "Hg4 mi
8:51 AM48 °FLow clouds.8 mph89%30.23 "Hg7 mi
7:51 AM48 °FFog.9 mph91%30.21 "Hg5 mi
6:51 AM47 °FLight rain. Fog.7 mph97%30.24 "Hg4 mi
5:51 AM47 °FLight rain. Fog.7 mph93%30.25 "Hg5 mi
4:51 AM43 °FLight rain. Fog.8 mph97%30.25 "Hg4 mi
3:51 AM43 °FLight rain. Fog.9 mph93%30.27 "Hg3 mi
2:51 AM43 °FLight rain. Fog.10 mph93%30.29 "Hg4 mi
1:51 AM43 °FLight rain. Fog.10 mph89%30.29 "Hg4 mi
12:51 AM43 °FLight rain. Overcast.8 mph86%30.29 "Hg9 mi
11:51 PM
Mon, Nov 30
45 °FLight rain. Overcast.6 mph76%30.30 "Hg10 mi
10:51 PM44 °FOvercast.8 mph76%30.33 "Hg10 mi
9:51 PM44 °FMostly cloudy.8 mph73%30.34 "Hg10 mi
8:51 PM44 °FMostly cloudy.7 mph73%30.35 "Hg10 mi
7:51 PM43 °FOvercast.8 mph76%30.36 "Hg10 mi
6:51 PM43 °FMostly cloudy.10 mph74%30.36 "Hg10 mi
5:51 PM43 °FPassing clouds.9 mph74%30.36 "Hg10 mi
4:51 PM44 °FPartly cloudy.9 mph68%30.37 "Hg10 mi
3:51 PM43 °FPartly sunny.13 mph71%30.39 "Hg10 mi
Weather by CustomWeather, © 2015

See weather overviewHow to use our weather pages